COSMOS 1124 DEB, 12814

Orbit data source: Space-Track

COSMOS 1124 DEB, 12814 is space debris in HEO originally from a launch on Tue, 28 Aug 1979 UTC launched from the Plesetsk Missile And Space Complex (PKMTR). Debris objects in space refer to the collection of defunct objects orbiting the Earth. Examples of debris include non-operational satellites, rocket bodies, and fragments generated from explosions, collisions, or faulty payload assembly.

Loading next visibility...
Identifier
12814, 1979-077E
Orbit
HEO
Country
Flag of CISCIS
Related business
Manufacturer
Unknown
Mission
Spacecraft
Bus & Motor
Unknown
Mass
Unknown
Launch date (UTC)
1979-08-28 (47 years ago)
Launch vehicle
Unknown
Launch site
Plesetsk Missile And Space Complex (PKMTR)
Object type
Payload
Rocket body
Debris
Shape & HBR
Unknown shape, 0.3 m
Radar Cross Section
Medium (>0.1 m² and <1 m²)

Expand to show TLE details & history
Last TLE update: 2 days ago

TLE from 2 days ago
0 COSMOS 1124 DEB
1 12814U 79077E   26171.31446053  .00013912  00000-0  18149-1 0  9999
2 12814  60.2777 214.9455 7311503  69.4404 350.7829  2.19737363 63154
Epoch: 2026-06-20T07:32Z
TLE epoch observation values (Epoch: 2026-06-20T07:32:49.389Z)
Latitude
0.0002°
Longitude
-166.77649°
Altitude
2,854.116 km
Speed
8.391 km/s
True Right ascension
14h 19m 50s
True Declination
0° 00' 01"
Sunlit
Object was in daylight at epoch
Visualization orbit readout
Latitude
Unknown
Longitude
Unknown
Altitude
Unknown
Speed
Unknown
Apparent Right ascension
Unknown
Apparent Declination
Unknown
Sunlit
N/A
Visualization observer readout
Local Sidereal Time
23:08:10
Azimuth
Unknown
Elevation
Unknown
Doppler factor
Unknown
Orbital elements
Apogee altitude
36,885.36 km
Perigee altitude
340.735 km
Semi-major axis
24,991.185 km
Eccentricity
0.73115
Inclination
60.2777°
RAAN
214.9455°
Arg. of periapsis
69.4404°
True anomaly
290.75377°
Mean anomaly
350.7829°
Eccentric anomaly
329.5573°
Mean motion
0.54937 °/min
Orbital period
655.3 mins
BSTAR
0.018149
Loading maneuver chart data...
Computing Atmospheric mass density...
Loading historical data...
Loading historical data...
Loading historical data...
Loading historical data...
Loading historical data...
Loading historical data...
Loading historical data...

Documentation

Showing up to 5 results
|